{"data":{"norad_id":62435,"epoch":"2026-09-21T20:08:41.332992Z","epoch_age_seconds":58783,"freshness":"FRESH","line1":"1 62435U 24251D   26264.83936728  .00020116  00000+0  60485-3 0  9995","line2":"2 62435  53.1585 143.2278 0001359  87.9971 272.1187 15.34402385 97992","mean_motion":15.34402385,"eccentricity":0.0001359,"inclination_deg":53.1585,"raan_deg":143.2278,"arg_perigee_deg":87.9971,"mean_anomaly_deg":272.1187,"bstar":0.00060485,"rev_number":9799,"period_min":93.847612208971,"perigee_km":461.76648226838,"apogee_km":463.62582071896,"semimajor_km":6840.8331514937,"source":"CELESTRAK","updated_at":"2026-09-22T09:00:49.580288Z"}}